Location: Unspecified
(47.6578°N, 23.5640°E)
Time: 22:04:21
(UTC+02:00)

ISS - Pass Details

Date: 06 December 2017
Orbit: 402 x 407 km, 51.6° (Epoch: 13 December)

Event Time Altitude Azimuth Distance (km) Brightness Sun altitude
Rises 17:06:23 0° 257° (WSW) 2,326 1.9 -5.5°
Reaches altitude 10° 17:08:29 10° 261° (W) 1,466 0.4 -5.8°
Maximum altitude 17:11:45 60° 342° (NNW) 472 -3.5 -6.3°
Drops below altitude 10° 17:15:00 10° 64° (ENE) 1,469 -1.7 -6.8°
Enters shadow 17:15:12 - 64° (ENE) 1,549 -1.6 -6.8°
